Location: Bouchavesnes-Bergen
(49.9859°N, 2.9203°E)
Time: 23:53:20
(UTC+00:00)

Envisat - Visible Passes

Search period start: 14 April 2024 00:00
Search period end: 24 April 2024 00:00
Orbit: 762 x 764 km, 98.3° (Epoch: 14 April)

Date Brightness Start Highest point End Pass type
(mag) Time Alt. Az. Time Alt. Az. Time Alt. Az.
14 Apr 4.1 02:44:26 10° NNE 02:49:16 41° E 02:54:03 10° SSE visible
15 Apr 5.1 02:07:48 10° NE 02:11:37 21° E 02:15:24 10° SE visible
15 Apr 3.1 03:45:59 10° N 03:51:01 62° WNW 03:56:01 10° SSW visible
16 Apr 3.3 03:08:37 10° NNE 03:13:42 66° ESE 03:18:44 10° S visible
17 Apr 4.5 02:31:36 10° NNE 02:36:11 33° E 02:40:44 10° SSE visible
17 Apr 3.6 04:10:31 10° N 04:15:14 40° WNW 04:19:57 10° SW visible
18 Apr 5.4 01:55:17 10° NE 01:58:28 16° E 02:01:37 10° SE visible
18 Apr 3.0 03:32:57 10° NNE 03:38:03 79° WNW 03:43:07 10° SSW visible
19 Apr 3.7 02:55:42 10° NNE 03:00:40 52° E 03:05:37 10° S visible
20 Apr 4.9 02:18:51 10° NE 02:23:05 26° E 02:27:17 10° SSE visible
20 Apr 3.3 03:57:24 10° N 04:02:19 50° WNW 04:07:12 10° SW visible
21 Apr 5.6 01:43:04 10° ENE 01:45:16 13° E 01:47:30 10° ESE visible
21 Apr 3.1 03:19:57 10° NNE 03:25:04 83° ESE 03:30:09 10° SSW visible
22 Apr 4.1 02:42:48 10° NNE 02:47:36 41° E 02:52:23 10° SSE visible
23 Apr 5.2 02:06:11 10° NE 02:09:57 21° E 02:13:42 10° SE visible
23 Apr 3.1 03:44:21 10° N 03:49:22 64° WNW 03:54:23 10° SSW visible
